IRIDIUM 63 [-] (25286 NORAD) Tracking and Keplerian Element Data

This shows tracking and keplerian element data for the satellite.

Feedback or suggestion? Click here.




ElementValue
Catalog25286
NameIRIDIUM 63 [-]
Epoch Orbit8299
Epoch Day348.77787826
Epoch Year2018
RAAN356.2783
Inclination86.3977
Eccentricity0.0002344
Argument of Perigee91.5905
Mean Anonmoly14.716
Mean Motion14.34754201
Decay Rate9E-07
L11 25286U 98021B 18348.77787826 .00000090 00000-0 24769-4 0 9990
L22 25286 86.3977 356.2783 0002344 91.5905 14.7160 14.34754201 82999

Live tracking and technical data element details for IRIDIUM 63 [-] (NORAD 25286). IRIDIUM 63 [-] can be tracked NOW for your location showing map with azimuth and elevation plus other details from your city location.

Track the satellite on the map from your city or location and see movement details for azimuth, elevation, latitude, longitude, range, height, and movement on the map or in text.







IsCatalogInMostPopularTable: catalog: 25286, numindb: 47
Update: records affected: 1



GetName: 25286 IRIDIUM 63 [-]

Hit Count: updated at: Sat, 15 Dec 2018 19:28:11 GMT